Aérodrome :
LOGIN :

S'inscrire | Disclaimer

   EN    FR    IT 

 










Légende :    VFR   VFR Marginal   IFR   IFR Intensif   IFR Très Intensif
Visi : 
Plafond : 
>= 8 km
>= 3000ft
5 à 8 km
1000 à 3000 ft
1500m à 5 km
500 à 1000 ft
800 à 1500m
200 à 500 ft
< 800m
< 200 ft
Symboles :   Orages  Brouillard  Fortes neiges  Fortes précipitations  Vent > 20 kt
SIGMETs :   Divers  Orages  Givrage  Turbulence  Onde Orograph.  Cendres Volcan.







- Altitude de l'aérodrome : 25 ft
- Code IATA : QCY


EGXC - RAF Coningsby

DERNIER METAR :
  • 180250Z 11002KT 9999 -RA OVC045 10/09 Q1014 BLU

METARs EXPIRÉS :
  • 180150Z 15003KT 9999 -RA BKN050 OVC080 10/09 Q1015 BLU
  • 180050Z 36002KT CAVOK 10/09 Q1016 BLU

TAF TAF EGXC
Valide du 18 à 03h jusqu'au 18 à 21h UTC


180200Z 1803/1821 12005KT 9999 BKN035
TEMPO 1803/1810 7000 RA SCT020
PROB30
TEMPO 1806/1809 3000 SCT004
BECMG 1810/1812 BKN012
TEMPO 1810/1818 4000 RA
BECMG 1816/1818 BKN006
TEMPO 1818/1821 3000 -RADZ BKN004
Pas de NOTAMs connus pour ce terrain.



MET'MAP, la Météo Aéronautique d'un coup d'oeil ! - Copyright ORBIFLY Décembre 2007 - Disclaimer

ORBIFLY MET'MAP TEAM :

Programmation & Développement : Alexandra Zaïnal
Conception & Développement : Baudouin d'Aumeries
Co-Programmation & Développement : Marc-Olivier Méhu
Soutien technique & logistique : Manuel Goepfert

Contact : metmap@orbifly.com




SOURCES & CREDITS :

   NOAA